073  
ASUS41 KALY 181210  
RWRALY  
 
NEW YORK STATE HOURLY WEATHER ROUNDUP  
NATIONAL WEATHER SERVICE ALBANY NY  
800 AM EDT THU OCT 18 2018  
 
NOTE: "FAIR" INDICATES FEW OR NO CLOUDS BELOW 12,000 FEET WITH NO  
SIGNIFICANT WEATHER AND/OR NO S TO VISIBILITY
.  
 
NYZ032-033-038>043-046>054-057>066-NYZ062>081-082-084-181300-  
EAST  
 
 
CITY SKY/WX TMP DP RH WIND PRES REMARKS
 
ALBANY FAIR 34 20 56 NW9 30.30R WCI 27  
GLENS FALLS MOCLDY 34 20 56 NW12 30.27R WCI 25  
POUGHKEEPSIE FAIR 37 25 61 NE5 30.28R WCI 33  
NEWBURGH PTCLDY 36 23 60 NW7 30.29R WCI 30  
MONTGOMERY FAIR 33 30 88 SW3 30.28R  
WHITE PLAINS FAIR 40 24 53 NW16G22 30.26R WCI 31  
ISLIP MOCLDY 44 30 57 W7 30.27R  
NEW YORK CITY FAIR 44 27 51 NW16G23 30.30R  
CENTRAL PARK FAIR 42 25 50 MISG 30.33R  

 
 
NYZ005>009-017-018-044>046-055-056-181300-  
CENTRAL  
 
 
CITY SKY/WX TMP DP RH WIND PRES REMARKS
 
FULTON FAIR 34 18 52 NW9 30.37R WCI 27  
SYRACUSE FAIR 33 21 61 W9 30.37R WCI 25  
ROME FAIR 28 23 81 NW8 30.36R WCI 20  
ELMIRA FAIR 36 25 64 CALM 30.37R  
BINGHAMTON FAIR 30 22 72 NW9 30.30R WCI 22  
MONTICELLO FAIR 33 24 69 NW13G24 30.25R WCI 24  

 
 
NYZ026>034-041>043-087-181300-  
NORTH  
 
 
CITY SKY/WX TMP DP RH WIND PRES REMARKS
 
WATERTOWN FAIR 30 21 69 NW9 30.37R WCI 22  
FORT DRUM NOT AVBL  
OGDENSBURG FAIR 31 21 67 W10 30.33R WCI 22  
MASSENA FAIR 31 22 69 W12 30.31R WCI 22  
SARANAC LAKE CLOUDY 24 18 77 VRB7G20 30.19R WCI 16  
PLATTSBURGH FAIR 32 18 56 NW14G23 30.23R WCI 22  

 
 
NYZ001>004-010>016-019>021-085-181300-  
WEST  
 
 
CITY SKY/WX TMP DP RH WIND PRES REMARKS
 
NIAGARA FALLS MOCLDY 31 26 82 W3 30.42R  
BUFFALO MOCLDY 34 30 85 W6 30.42R WCI 29  
DUNKIRK FAIR 37 27 67 N10 30.43R WCI 30  
JAMESTOWN CLOUDY 33 25 72 NW7 30.38R WCI 27  
WELLSVILLE CLOUDY 31 27 85 NW10 30.35R WCI 22  
ROCHESTER FAIR 35 24 64 NW5 30.41R WCI 31  
PENN YAN FAIR 33 22 63 NW7 30.38R WCI 27  

 
 
KEY  
WCI = WIND CHILL INDEX  
VSB = VISIBILITY  
HX = HEAT INDEX  

 
 
 
CLICK HERE TO GO TO PREVIOUS BULLETINS.

The Nexlab NY Page
The Nexlab VT Page
The Nexlab MA Page
The Nexlab CT Page Main Text Page